FW6020 Weather Reports


time (UTC)temp
C
wind
direction
speed
KPH
gust
KPH
rain 1hr
cm
rain 24hr
cm
rain mn
cm
humidity
%
barometer
mb
20260504081916 8 135 1.6 4.8 0.00 0.00 0.00 61 1008.2
20260504080916 8 113 4.8 6.4 0.00 0.00 0.00 61 1008.2
20260504045916 8 158 6.4 11.3 0.00 0.00 0.00 48 1008.7
20260504044916 8 158 6.4 9.7 0.00 0.00 0.00 48 1008.8
20260504043916 8 158 6.4 8.0 0.00 0.00 0.00 47 1008.9
20260504042916 7 158 6.4 9.7 0.00 0.00 0.00 46 1008.9
20260504041916 7 113 6.4 12.9 0.00 0.00 0.00 47 1009.0
20260504040916 7 158 4.8 9.7 0.00 0.00 0.00 48 1009.0
20260504035916 7 135 4.8 8.0 0.00 0.00 0.00 44 1009.1
20260504034917 7 135 3.2 9.7 0.00 0.00 0.00 45 1008.9
20260504033916 6 135 4.8 6.4 0.00 0.00 0.00 44 1009.0
20260504032916 6 158 3.2 6.4 0.00 0.00 0.00 45 1009.1
20260504031916 6 158 3.2 4.8 0.00 0.00 0.00 45 1009.1
20260504030916 6 158 4.8 6.4 0.00 0.00 0.00 45 1009.1
20260504025936 6 135 4.8 4.8 0.00 0.00 0.00 46 1009.1
20260504024916 5 135 3.2 6.4 0.00 0.00 0.00 47 1009.2
20260504023936 6 0.0 0.0 0.00 0.00 0.00 47 1009.1
20260504022916 6 158 1.6 3.2 0.00 0.00 0.00 44 1009.3
20260504021916 6 158 3.2 4.8 0.00 0.00 0.00 46 1009.5
20260504020916 6 0.0 0.0 0.00 0.00 0.00 46 1009.4
20260504015916 7 135 3.2 3.2 0.00 0.00 0.00 46 1009.4
20260504014916 7 158 4.8 6.4 0.00 0.00 0.00 44 1009.5
20260504013916 7 158 3.2 4.8 0.00 0.00 0.00 44 1009.6
20260504012935 6 158 3.2 4.8 0.00 0.00 0.00 47 1009.6
20260504011915 6 158 3.2 3.2 0.00 0.00 0.00 48 1009.5
20260504010916 6 158 3.2 4.8 0.00 0.00 0.00 49 1009.5
20260504005916 6 0.0 0.0 0.00 0.03 0.00 50 1009.3
20260504004916 7 0.0 0.0 0.00 0.03 0.00 47 1009.2
20260504003915 7 0.0 0.0 0.00 0.03 0.00 47 1009.2
20260504002916 7 0.0 0.0 0.00 0.03 0.00 46 1009.2
20260504001936 7 0.0 0.0 0.00 0.03 0.00 48 1009.1
20260504000915 7 0.0 0.0 0.00 0.03 0.00 48 1009.1
20260503235916 8 0.0 0.0 0.00 0.05 0.00 45 1008.9
20260503234916 9 0.0 0.0 0.00 0.05 0.00 43 1009.1
20260503233935 10 0.0 1.6 0.00 0.08 0.00 41 1009.0
20260503232915 11 158 1.6 4.8 0.00 0.08 0.00 39 1009.1
20260503231915 11 0.0 1.6 0.00 0.08 0.00 39 1009.1
20260503230915 11 158 4.8 8.0 0.00 0.08 0.00 38 1009.1
20260503225917 12 135 1.6 3.2 0.00 0.10 0.00 37 1009.1
20260503224917 12 158 3.2 4.8 0.00 0.10 0.00 35 1009.1
20260503223917 11 158 1.6 3.2 0.00 0.10 0.00 32 1009.0
20260503222917 11 180 1.6 3.2 0.00 0.10 0.00 34 1009.0
20260503221917 11 225 6.4 9.7 0.00 0.10 0.00 32 1009.1
20260503220917 11 203 3.2 4.8 0.00 0.10 0.00 36 1009.1
20260503215938 11 225 3.2 6.4 0.00 0.10 0.00 36 1009.2
20260503214917 11 180 1.6 3.2 0.00 0.13 0.00 33 1009.1
20260503213917 11 203 1.6 4.8 0.00 0.13 0.00 36 1009.1
20260503212937 11 0.0 1.6 0.00 0.13 0.00 37 1009.1
20260503211918 11 180 1.6 6.4 0.00 0.13 0.00 34 1009.2
20260503210917 11 180 3.2 8.0 0.00 0.13 0.00 36 1009.1
20260503205917 11 203 4.8 8.0 0.00 0.13 0.00 34 1009.1
20260503204937 11 158 3.2 8.0 0.00 0.15 0.00 34 1009.1
20260503203917 11 0.0 1.6 0.00 0.15 0.00 38 1009.2
20260503202917 11 135 1.6 4.8 0.00 0.15 0.00 36 1009.3
20260503201917 11 203 1.6 4.8 0.00 0.15 0.00 35 1009.3
20260503201038 11 180 3.2 6.4 0.00 0.15 0.00 38 1009.5
20260503195917 10 68 3.2 6.4 0.00 0.15 0.00 37 1009.5
20260503194917 10 180 1.6 3.2 0.00 0.15 0.00 35 1009.7
20260503193917 10 338 1.6 4.8 0.00 0.15 0.00 37 1009.8
20260503192949 10 0.0 0.0 0.00 0.15 0.00 39 1009.9
20260503192137 10 180 1.6 3.2 0.00 0.15 0.00 41 1010.0
20260503191118 10 180 3.2 6.4 0.00 0.15 0.00 39 1010.1
20260503190117 9 180 1.6 3.2 0.00 0.15 0.00 40 1010.1
20260503185117 10 203 6.4 9.7 0.00 0.15 0.00 39 1010.3
20260503184117 10 203 6.4 11.3 0.00 0.15 0.00 38 1010.3
20260503183117 10 225 4.8 8.0 0.00 0.15 0.00 38 1010.4
20260503182117 10 180 1.6 3.2 0.00 0.15 0.00 40 1010.4
20260503181117 10 203 1.6 4.8 0.00 0.18 0.00 43 1010.6
20260503180117 10 180 1.6 3.2 0.00 0.20 0.00 41 1010.6
20260503175117 10 225 3.2 6.4 0.00 0.20 0.00 41 1010.6
20260503174117 10 135 1.6 6.4 0.00 0.20 0.00 43 1010.7
20260503173117 9 203 3.2 8.0 0.00 0.20 0.00 41 1010.7
20260503172138 10 203 6.4 11.3 0.00 0.20 0.00 39 1010.8
20260503171117 10 113 3.2 6.4 0.00 0.20 0.00 42 1010.8
20260503170117 9 0.0 1.6 0.00 0.20 0.00 43 1010.9
20260503160117 9 338 4.8 8.0 0.00 0.20 0.00 39 1011.5
20260503150116 8 203 1.6 3.2 0.00 0.20 0.00 53 1012.0
20260503140117 8 248 4.8 8.0 0.00 0.20 0.00 58 1012.4
20260503131116 7 338 3.2 6.4 0.00 0.20 0.00 57 1012.4
20260503130116 7 180 1.6 6.4 0.00 0.20 0.00 60 1012.5